Miscellaneous Local Product
Issued by NWS Hastings, NE

Home | Current Version | Previous Version | Graphics & Text | Print | Product List | Glossary On
Versions: 1 2 3 4 5 6 7 8 9 10 11 12 13 14 15 16 17 18 19 20 21 22 23 24 25 26 27 28 29 30 31 32 33 34 35 36 37 38 39 40 41 42 43 44 45 46 47 48 49 50
100
AXUS43 KGID 030502
MISGRI

GID CWA HOURLY WEATHER ROUNDUP
NATIONAL WEATHER SERVICE HASTINGS NE
1200 AM CDT TUE MAY 03 2016

NOTE: "FAIR" INDICATES FEW OR NO CLOUDS BELOW 12,000 FEET WITH NO
SIGNIFICANT WEATHER AND/OR OBSTRUCTIONS TO VISIBILITY.

...SOUTH CENTRAL NEBRASKA...

CITY           SKY/WX    TMP DP  RH WIND       PRES   REMARKS
GRAND ISLAND   CLOUDY    49  40  71 S5        30.05S
HASTINGS       CLEAR     48  38  68 S3        30.04F
KEARNEY        MOCLDY    46  39  76 S5        30.05S
ORD            CLOUDY    42  39  89 CALM      30.03S
YORK           CLEAR     50  39  66 S3        30.06S
AURORA         CLEAR     49  40  69 S3        30.05S
LEXINGTON      CLOUDY    48  40  74 SE6       30.04S
HOLDREGE       MOCLDY    46  40  79 CALM      30.04S
HEBRON         MOCLDY    46  42  86 CALM      30.05S

...NEBRASKA PANHANDLE...

CITY           SKY/WX    TMP DP  RH WIND       PRES   REMARKS
CHADRON        CLOUDY    46  42  86 W8        30.05R
ALLIANCE       MOCLDY    41  38  89 W7        30.06F
SCOTTSBLUFF    LGT RAIN  48  39  71 N12       30.08R
SIDNEY         MOCLDY    45  35  68 NW12      30.06R

...WESTERN AND NORTH CENTRAL NEBRASKA...

CITY           SKY/WX    TMP DP  RH WIND       PRES   REMARKS
VALENTINE      LGT RAIN  46  43  89 S5        30.06S
AINSWORTH      DRIZZLE   47  45  91 NW7       30.07R
ONEILL         CLOUDY    51  46  84 CALM      30.04S
BROKEN BOW     PTCLDY    41  38  89 CALM      30.03S
IMPERIAL       CLOUDY    50  37  61 SW7       30.01F
NORTH PLATTE   LGT RAIN  47  41  80 SW5       30.05R
MCCOOK         PTCLDY    44  37  76 SW5       30.02F

...EASTERN NEBRASKA...

CITY           SKY/WX    TMP DP  RH WIND       PRES   REMARKS
NORFOLK        CLEAR     47  39  74 S8        30.04R
SO SIOUX CITY  MOCLDY    52  44  74 E3        30.04S
TEKAMAH        MOCLDY    50  46  86 CALM      30.04S
COLUMBUS       PTCLDY    45  34  65 CALM      30.06S
ALBION         CLOUDY    46  40  81 CALM      30.05R
OMAHA EPPLEY   PTCLDY    47  42  83 CALM      30.05S
OFFUTT AFB     PTCLDY    47  46  99 NW2       30.04S
MILLARD        PTCLDY    47  43  86 CALM      30.05S
LINCOLN        CLOUDY    51  42  71 CALM      30.06S
NEBRASKA CITY  CLEAR     49  41  74 SW5       30.05S
BEATRICE       PTCLDY    48  42  79 CALM      30.06R
FALLS CITY     CLEAR     50  43  77 SW5       30.05S

...NORTHERN KANSAS...

CITY           SKY/WX    TMP DP  RH WIND       PRES   REMARKS
GOODLAND       CLOUDY    48  37  65 W6        30.06F
HILL CITY      CLOUDY    49  40  71 E5        30.05F
NORTON         MOCLDY    50  36  57 SE8       30.03F
PHILLIPSBURG   CLEAR     50  39  66 CALM      30.05S
SMITH CENTER   MOCLDY    45  41  87 SE7       30.05F
BELOIT         PTCLDY    48  39  71 SE3       30.04S
HAYS           CLOUDY    48  36  61 SE8       30.05F
RUSSELL        CLOUDY    50  41  71 SE9       30.04F
CONCORDIA      CLEAR     47  35  63 S7        30.05F
SALINA         PTCLDY    48  42  80 S8        30.06F
TOPEKA         CLEAR     47  44  90 CALM      30.07F



USA.gov is the U.S. government's official web portal to all federal, state and local government web resources and services.